TimeEDT,TemperatureF,Dew PointF,Humidity,Sea Level PressureIn,VisibilityMPH,Wind Direction,Wind SpeedMPH,Gust SpeedMPH,PrecipitationIn,Events,Conditions,WindDirDegrees,DateUTC
12:54 AM,48.9,43.0,80,30.08,10.0,SSE,5.8,-,N/A,,Partly Cloudy,160,2012-10-10 04:54:00
1:54 AM,50.0,44.1,80,30.06,10.0,South,8.1,-,N/A,,Mostly Cloudy,170,2012-10-10 05:54:00
2:54 AM,50.0,44.1,80,30.04,10.0,Calm,Calm,-,N/A,,Overcast,0,2012-10-10 06:54:00
3:54 AM,51.1,45.0,80,30.02,10.0,ESE,3.5,-,N/A,,Overcast,120,2012-10-10 07:54:00
4:54 AM,51.1,45.0,80,30.01,10.0,Calm,Calm,-,N/A,,Overcast,0,2012-10-10 08:54:00
5:54 AM,51.1,45.0,80,30.00,10.0,SSE,3.5,-,N/A,,Overcast,160,2012-10-10 09:54:00
6:54 AM,51.1,43.0,74,29.99,10.0,SE,3.5,-,N/A,,Overcast,130,2012-10-10 10:54:00
7:54 AM,52.0,45.0,77,29.97,10.0,SSE,6.9,-,N/A,,Overcast,150,2012-10-10 11:54:00
8:54 AM,52.0,44.1,74,29.95,10.0,SSE,4.6,-,N/A,,Mostly Cloudy,150,2012-10-10 12:54:00
9:54 AM,53.1,44.1,71,29.93,10.0,South,4.6,-,N/A,,Overcast,170,2012-10-10 13:54:00
10:54 AM,55.0,45.0,69,29.88,10.0,South,5.8,-,N/A,,Overcast,170,2012-10-10 14:54:00
11:54 AM,57.0,46.9,69,29.85,10.0,SSE,8.1,-,0.00,,Light Drizzle,160,2012-10-10 15:54:00
12:03 PM,55.4,46.4,72,29.84,10.0,SSW,4.6,-,0.00,,Light Drizzle,210,2012-10-10 16:03:00
12:54 PM,55.0,50.0,83,29.81,10.0,South,4.6,-,0.00,,Overcast,170,2012-10-10 16:54:00
1:24 PM,55.4,51.8,88,29.79,4.0,South,5.8,-,0.00,Rain,Light Rain,190,2012-10-10 17:24:00
1:49 PM,53.6,51.8,94,29.78,6.0,SW,10.4,-,0.01,,Overcast,230,2012-10-10 17:49:00
1:54 PM,54.0,51.1,90,29.78,5.0,SW,6.9,-,0.01,,Overcast,230,2012-10-10 17:54:00
2:01 PM,53.6,51.8,94,29.77,1.0,SSW,9.2,-,0.01,Rain,Light Rain,200,2012-10-10 18:01:00
2:04 PM,53.6,51.8,94,29.77,1.5,South,6.9,-,0.01,Rain,Light Rain,180,2012-10-10 18:04:00
2:29 PM,53.6,51.8,94,29.74,2.5,South,11.5,-,0.04,Rain,Light Rain,170,2012-10-10 18:29:00
2:36 PM,53.6,51.8,94,29.74,3.0,SSE,10.4,-,0.05,Rain,Light Rain,160,2012-10-10 18:36:00
2:54 PM,55.0,52.0,89,29.74,2.0,South,11.5,18.4,0.06,Rain,Light Rain,170,2012-10-10 18:54:00
3:07 PM,53.6,51.8,94,29.74,2.0,South,12.7,-,0.01,Rain,Light Rain,180,2012-10-10 19:07:00
3:38 PM,55.4,51.8,88,29.72,2.0,South,12.7,-,0.04,Rain,Light Rain,170,2012-10-10 19:38:00
3:54 PM,55.0,52.0,89,29.72,2.0,South,11.5,-,0.04,Rain,Light Rain,180,2012-10-10 19:54:00
4:01 PM,55.4,51.8,88,29.72,6.0,South,11.5,-,0.00,Rain,Light Rain,170,2012-10-10 20:01:00
4:13 PM,55.4,51.8,88,29.72,2.0,South,11.5,-,0.01,Rain,Light Rain,180,2012-10-10 20:13:00
4:25 PM,55.4,51.8,88,29.71,1.8,South,12.7,20.7,0.03,Rain,Light Rain,180,2012-10-10 20:25:00
4:27 PM,55.4,51.8,88,29.71,2.0,South,11.5,-,0.03,Rain,Light Rain,170,2012-10-10 20:27:00
4:38 PM,55.4,51.8,88,29.70,5.0,South,12.7,-,0.04,Rain,Light Rain,170,2012-10-10 20:38:00
4:48 PM,55.4,51.8,88,29.70,7.0,South,12.7,18.4,0.05,Rain,Light Rain,170,2012-10-10 20:48:00
4:54 PM,55.0,52.0,89,29.70,8.0,South,13.8,19.6,0.05,Rain,Light Rain,170,2012-10-10 20:54:00
5:54 PM,55.0,52.0,89,29.70,10.0,South,8.1,-,0.00,,Overcast,180,2012-10-10 21:54:00
6:22 PM,55.4,51.8,88,29.71,10.0,WSW,5.8,-,N/A,,Overcast,240,2012-10-10 22:22:00
6:37 PM,55.4,51.8,88,29.71,10.0,SSW,4.6,-,N/A,,Overcast,200,2012-10-10 22:37:00
6:54 PM,55.0,52.0,89,29.73,10.0,SSW,8.1,-,N/A,,Overcast,210,2012-10-10 22:54:00
7:54 PM,53.1,39.9,61,29.76,10.0,West,16.1,29.9,0.01,,Overcast,280,2012-10-10 23:54:00
8:54 PM,52.0,39.0,61,29.79,10.0,West,12.7,18.4,N/A,,Overcast,280,2012-10-11 00:54:00
9:54 PM,51.1,39.0,63,29.81,10.0,WNW,10.4,-,N/A,,Overcast,300,2012-10-11 01:54:00
10:54 PM,48.9,39.9,71,29.81,10.0,WNW,12.7,19.6,0.00,Rain,Light Rain,290,2012-10-11 02:54:00
11:54 PM,48.0,37.9,68,29.81,10.0,WNW,9.2,-,0.00,,Mostly Cloudy,300,2012-10-11 03:54:00